When you browse on this site, cookies collect data to enhance your experience and personalize the content and advertising you see.
Visit our Privacy Policy to learn more. By continuing to use the site, you agree to this use of cookies and data.
  • In Hungary
  • List of Countries
  • For 7 days
  • Water Temperature
  • Weather Map
  • News
  • Weather Widgets
  • user-avatar
    Login

    Hourly Weather Suonenjoki

    Today, 22 August, Thursday

    Time Temperature Precipitation Wind Pressure Humidity
    00:00 +13°C° 0.1 mm 1 mps 751 mmHg 93%
    01:00 +12°C° 0.1 mm 1 mps 751 mmHg 94%
    02:00 +12°C° 0.1 mm 2 mps 751 mmHg 94%
    03:00 +10°C° 0 mm 2 mps 751 mmHg 95%
    04:00 +10°C° 0 mm 2 mps 751 mmHg 96%
    05:00 +10°C° 0 mm 2 mps 751 mmHg 96%
    06:00 +12°C° 0 mm 2 mps 751 mmHg 93%
    07:00 +13°C° 0 mm 2 mps 751 mmHg 89%
    08:00 +14°C° 0 mm 2 mps 751 mmHg 85%
    09:00 +14°C° 0.1 mm 3 mps 751 mmHg 78%
    10:00 +17°C° 0.1 mm 3 mps 751 mmHg 70%
    11:00 +18°C° 0.1 mm 3 mps 751 mmHg 63%
    12:00 +19°C° 0.2 mm 3 mps 751 mmHg 58%
    13:00 +19°C° 0.2 mm 3 mps 751 mmHg 52%
    14:00 +20°C° 0.2 mm 4 mps 752 mmHg 47%
    15:00 +20°C° 0 mm 4 mps 752 mmHg 45%
    16:00 +20°C° 0 mm 4 mps 752 mmHg 44%
    17:00 +20°C° 0 mm 4 mps 752 mmHg 42%
    18:00 +18°C° 0 mm 3 mps 752 mmHg 49%
    19:00 +16°C° 0 mm 3 mps 752 mmHg 55%
    20:00 +14°C° 0 mm 2 mps 752 mmHg 62%
    21:00 +13°C° 0 mm 2 mps 753 mmHg 64%
    22:00 +12°C° 0 mm 2 mps 753 mmHg 67%
    23:00 +10°C° 0 mm 2 mps 753 mmHg 69%

    Tomorrow, 23 August, Friday

    Time Temperature Precipitation Wind Pressure Humidity
    00:00 +10°C° 0 mm 2 mps 753 mmHg 71%
    01:00 +9°C° 0 mm 2 mps 753 mmHg 74%
    02:00 +9°C° 0 mm 2 mps 753 mmHg 76%
    03:00 +9°C° 0 mm 2 mps 753 mmHg 79%
    04:00 +9°C° 0 mm 2 mps 753 mmHg 82%
    05:00 +10°C° 0 mm 2 mps 753 mmHg 85%
    06:00 +10°C° 0.3 mm 2 mps 753 mmHg 88%
    07:00 +12°C° 0.3 mm 2 mps 753 mmHg 91%
    08:00 +12°C° 0.3 mm 3 mps 753 mmHg 94%
    09:00 +12°C° 0.1 mm 3 mps 752 mmHg 92%
    10:00 +13°C° 0.1 mm 3 mps 752 mmHg 89%
    11:00 +14°C° 0.1 mm 3 mps 752 mmHg 87%
    12:00 +15°C° 0.2 mm 4 mps 752 mmHg 82%
    13:00 +17°C° 0.2 mm 4 mps 752 mmHg 77%
    14:00 +18°C° 0.2 mm 4 mps 751 mmHg 72%
    15:00 +18°C° 0.5 mm 4 mps 751 mmHg 73%
    16:00 +18°C° 0.5 mm 4 mps 751 mmHg 75%
    17:00 +18°C° 0.5 mm 4 mps 750 mmHg 77%
    18:00 +15°C° 0.1 mm 4 mps 750 mmHg 80%
    19:00 +14°C° 0.1 mm 3 mps 750 mmHg 84%
    20:00 +12°C° 0.1 mm 3 mps 750 mmHg 87%
    21:00 +12°C° 0.1 mm 3 mps 750 mmHg 88%
    22:00 +12°C° 0.1 mm 3 mps 749 mmHg 89%
    23:00 +12°C° 0.1 mm 3 mps 749 mmHg 89%

    Day after tomorrow, 24 August, Saturday

    Time Temperature Precipitation Wind Pressure Humidity
    00:00 +12°C° 1.5 mm 3 mps 749 mmHg 92%
    01:00 +13°C° 1.5 mm 3 mps 748 mmHg 94%
    02:00 +13°C° 1.5 mm 3 mps 748 mmHg 97%
    03:00 +13°C° 1.3 mm 3 mps 747 mmHg 96%
    04:00 +13°C° 1.3 mm 3 mps 747 mmHg 96%
    05:00 +12°C° 1.3 mm 3 mps 747 mmHg 96%
    06:00 +13°C° 0 mm 3 mps 747 mmHg 93%
    07:00 +14°C° 0 mm 3 mps 747 mmHg 91%
    08:00 +14°C° 0 mm 4 mps 747 mmHg 88%
    09:00 +15°C° 0.5 mm 4 mps 747 mmHg 82%
    10:00 +17°C° 0.5 mm 4 mps 748 mmHg 76%
    11:00 +18°C° 0.5 mm 4 mps 748 mmHg 70%
    12:00 +18°C° 0.3 mm 4 mps 749 mmHg 68%
    13:00 +18°C° 0.3 mm 4 mps 749 mmHg 66%
    14:00 +17°C° 0.3 mm 5 mps 749 mmHg 63%
    15:00 +18°C° 0.2 mm 4 mps 750 mmHg 65%
    16:00 +17°C° 0.2 mm 4 mps 750 mmHg 67%
    17:00 +15°C° 0.2 mm 4 mps 750 mmHg 69%
    18:00 +14°C° 0.1 mm 4 mps 751 mmHg 76%
    19:00 +13°C° 0.1 mm 3 mps 751 mmHg 83%
    20:00 +12°C° 0.1 mm 3 mps 752 mmHg 89%
    21:00 +12°C° 0 mm 3 mps 753 mmHg 91%
    22:00 +11°C° 0 mm 3 mps 753 mmHg 92%
    23:00 +11°C° 0 mm 3 mps 754 mmHg 94%

    25 August, Sunday

    Time Temperature Precipitation Wind Pressure Humidity
    00:00 +11°C° 0 mm 3 mps 754 mmHg 94%
    01:00 +11°C° 0 mm 3 mps 755 mmHg 94%
    02:00 +11°C° 0 mm 3 mps 755 mmHg 94%
    03:00 +10°C° 0 mm 3 mps 756 mmHg 94%
    04:00 +10°C° 0 mm 3 mps 756 mmHg 94%
    05:00 +10°C° 0 mm 2 mps 756 mmHg 94%
    06:00 +12°C° 0 mm 2 mps 757 mmHg 89%
    07:00 +12°C° 0 mm 2 mps 757 mmHg 84%
    08:00 +13°C° 0 mm 2 mps 758 mmHg 79%
    09:00 +15°C° 0 mm 1 mps 758 mmHg 71%
    10:00 +18°C° 0 mm 1 mps 759 mmHg 64%
    11:00 +19°C° 0 mm 1 mps 759 mmHg 56%
    12:00 +20°C° 0 mm 1 mps 759 mmHg 53%
    13:00 +20°C° 0 mm 1 mps 759 mmHg 50%
    14:00 +21°C° 0 mm 1 mps 759 mmHg 47%
    15:00 +21°C° 0 mm 1 mps 759 mmHg 47%
    16:00 +20°C° 0 mm 1 mps 759 mmHg 48%
    17:00 +20°C° 0 mm 1 mps 759 mmHg 48%
    18:00 +18°C° 0 mm 1 mps 759 mmHg 55%
    19:00 +16°C° 0 mm 1 mps 759 mmHg 61%
    20:00 +14°C° 0 mm 1 mps 759 mmHg 67%
    21:00 +14°C° 0 mm 1 mps 759 mmHg 70%
    22:00 +13°C° 0 mm 1 mps 759 mmHg 73%
    23:00 +13°C° 0 mm 2 mps 759 mmHg 75%

    26 August, Monday

    Time Temperature Precipitation Wind Pressure Humidity
    00:00 +13°C° 0 mm 2 mps 759 mmHg 77%
    01:00 +12°C° 0 mm 2 mps 759 mmHg 78%
    02:00 +12°C° 0 mm 2 mps 759 mmHg 79%
    03:00 +12°C° 0 mm 2 mps 758 mmHg 81%
    04:00 +11°C° 0 mm 3 mps 758 mmHg 82%
    05:00 +11°C° 0 mm 3 mps 758 mmHg 84%
    06:00 +12°C° 0 mm 3 mps 757 mmHg 81%
    07:00 +13°C° 0 mm 3 mps 757 mmHg 77%
    08:00 +14°C° 0 mm 4 mps 757 mmHg 73%
    09:00 +15°C° 0 mm 4 mps 757 mmHg 67%
    10:00 +17°C° 0 mm 4 mps 756 mmHg 61%
    11:00 +19°C° 0 mm 4 mps 756 mmHg 55%
    12:00 +19°C° 0 mm 4 mps 756 mmHg 53%
    13:00 +20°C° 0 mm 4 mps 755 mmHg 51%
    14:00 +20°C° 0 mm 4 mps 755 mmHg 49%
    15:00 +20°C° 0 mm 4 mps 754 mmHg 51%
    16:00 +20°C° 0 mm 4 mps 754 mmHg 53%
    17:00 +20°C° 0 mm 3 mps 754 mmHg 55%
    18:00 +19°C° 0 mm 3 mps 753 mmHg 61%
    19:00 +17°C° 0 mm 3 mps 753 mmHg 67%
    20:00 +16°C° 0 mm 3 mps 753 mmHg 73%
    21:00 +16°C° 0 mm 3 mps 753 mmHg 74%
    22:00 +14°C° 0 mm 3 mps 752 mmHg 74%
    23:00 +14°C° 0 mm 3 mps 752 mmHg 75%

    27 August, Tuesday

    Time Temperature Precipitation Wind Pressure Humidity
    00:00 +14°C° 0 mm 3 mps 752 mmHg 77%
    01:00 +13°C° 0 mm 4 mps 752 mmHg 79%
    02:00 +13°C° 0 mm 4 mps 751 mmHg 81%
    03:00 +13°C° 0 mm 4 mps 751 mmHg 85%
    04:00 +13°C° 0 mm 4 mps 751 mmHg 90%
    05:00 +12°C° 0 mm 3 mps 750 mmHg 94%
    06:00 +14°C° 0 mm 4 mps 750 mmHg 91%
    07:00 +15°C° 0 mm 4 mps 750 mmHg 87%
    08:00 +17°C° 0 mm 4 mps 749 mmHg 84%
    09:00 +18°C° 0 mm 4 mps 749 mmHg 79%
    10:00 +20°C° 0 mm 5 mps 749 mmHg 73%
    11:00 +21°C° 0 mm 5 mps 749 mmHg 68%
    12:00 +22°C° 0 mm 5 mps 749 mmHg 65%
    13:00 +23°C° 0 mm 5 mps 749 mmHg 62%
    14:00 +23°C° 0 mm 5 mps 749 mmHg 59%
    15:00 +23°C° 0 mm 4 mps 749 mmHg 60%
    16:00 +23°C° 0 mm 4 mps 749 mmHg 61%
    17:00 +24°C° 0 mm 3 mps 749 mmHg 62%
    18:00 +21°C° 0 mm 2 mps 749 mmHg 69%
    19:00 +19°C° 0 mm 2 mps 749 mmHg 76%
    20:00 +19°C° 0 mm 1 mps 749 mmHg 83%
    21:00 +18°C° 0 mm 1 mps 749 mmHg 86%
    22:00 +16°C° 0 mm 2 mps 749 mmHg 89%
    23:00 +16°C° 0 mm 2 mps 749 mmHg 92%
    Show more